DELTA 1 DEB

Satellite information

Favourite Embed

Satellite Type and Status

DEBRISIN ORBIT

Key statistics

Satellite DELTA 1 DEB at a glance.

Uptime

17231

Days in orbit

Revolutions

≈ 14.3

Per day

Orbit

SSO

Sun Synchronous Orbit

Inclination

98.8

Latest

Satellite identification and parameters

Extended collection of information and parameters for DELTA 1 DEB.

Object identification

Identified? True

Debris? True

Object name: DELTA 1 DEB

International designator: 1978-026W

Object number (NORAD): 12181

Object ID (CCSDS): 12181

Country: UNITED STATES OF AMERICA (US)

Current information (Y/N): Y

RCS size: MEDIUM

Orbital parameters

Period: 100.949 minutes

Inclination: 98.8442 deg

SMA: 7181.709 km

Apoapsis: 874.547 km

Periapsis: 732.602 km

RAAN: 129.2174 deg

Eccentricy: 0.0098824

Argument of periapsis: 14.7034 deg

Mean anomaly: 345.6983 deg

Mean motion: 14.26464735 rev/day

Mean motion (dot): 0.00000386 rev/day2

B* drag term: 0.00017033 1/REarth

Two-line elements (TLE)

Creation date: May 8, 2025, 3:01 a.m.

Reference frame: TEME

Reference center: EARTH

Epoch: May 7, 2025, 10:49 p.m. UTC

TLE line 0: 0 DELTA 1 DEB

TLE line 1: 1 12181U 78026W 25127.95107291 .00000386 00000-0 17033-3 0 9991

TLE line 2: 2 12181 98.8442 129.2174 0098824 14.7034 345.6983 14.26464735298858

Live tracking on map

Real-time ground track for satellite DELTA 1 DEB.

In-orbit conjunctions

A list of the most updated potential collisions computed for object DELTA 1 DEB.

Target Orbit TCA Probability of collision Miss distance Type
SL-3 R/B LEO 2024-12-31 11:26:28 0.006652207 21.0 (m) ROCKET BODY
SL-16 DEB LEO 2024-08-14 13:27:06 0.000308057 75.0 (m) DEBRIS

Associated space launch

Earth observation satellite

DELTA 1 DEB was lifted into orbit during the mission ‘Delta 2910 | Landsat 3’, on board a Delta 2910 space rocket.

The launch took place on March 5, 1978, 5:54 p.m. from Space Launch Complex 2W.

For more information about the launch, click the button.

Launch to space Delta 2910 | Landsat 3
Delta 2910 | Landsat 3

Agency: N/A

Status: Launch Successful

Launch date: March 5, 1978, 5:54 p.m. UTC

Rocket: Delta 2910

Launch pad: Space Launch Complex 2W

Location: Vandenberg SFB, CA, USA

...

Latest news about this satellite

There are no fresh news available about this satellite. Check back as we update our databases every day.


Newsletter sign-up

Weekly statistics, charts and insights to help you stay on top of the space industry.